Weather History for Hot Springs, AR

Change the Weather History Date:

Friday, September 20, 2013

  Actual Average Record
Temperature  
Mean Temperature 76 °F -  
Max Temperature 82 °F 85 °F 99 °F (1953)
Min Temperature 69 °F 61 °F 46 °F (1961)
Cooling Degree Days 10    
Growing Degree Days 26 (Base 50)    
Moisture  
Dew Point 69 °F    
Average Humidity 91    
Maximum Humidity 96    
Minimum Humidity 58    
Precipitation  
Precipitation 1.84 in - - ()
Sea Level Pressure  
Sea Level Pressure 29.90 in    
Wind  
Wind Speed 4 mph (NE)    
Max Wind Speed 13 mph    
Max Gust Speed -    
Visibility 6 miles    
Events Rain    
Averages and records for this station are not official NWS values.
T = Trace of Precipitation, MM = Missing Value Source: NWS Daily Summary

Daily Weather History Graph

Daily Weather History Graph

Search for Another Location

Airport:

Trip Planner

Search our weather history database for the weather conditions in past years. The results will help you decide how hot, cold, wet, or windy it might be!

Date:

Astronomy

Sep. 20, 2013 Rise Set
Actual Time 6:59 AM CDT 7:11 PM CDT
Civil Twilight 6:34 AM CDT 7:36 PM CDT
Nautical Twilight 6:04 AM CDT 8:06 PM CDT
Astronomical Twilight 5:34 AM CDT 8:35 PM CDT
Moon 7:52 PM CDT (9/20) 8:09 AM CDT (9/20)
Length of Visible Light 13h 02m
Length of Day
12h 12m
Full, 98% of the Moon is Illuminated
Sep 20
Full
Sep 26
Last Quarter
Oct 4
New
Oct 11
First Quarter
Oct 18
Full

Hourly Weather History & Observations

Time (CDT) Temp. Heat Index Dew Point Humidity Pressure Visibility Wind Dir Wind Speed Gust Speed Precip Events Conditions
12:53 AM 82.0 °F 84.1 °F 66.0 °F 58% 29.94 in 10.0 mi SW 8.1 mph - N/A   Partly Cloudy
1:53 AM 78.1 °F - 69.1 °F 74% 29.94 in 10.0 mi North - - 0.00 in Rain Light Rain
2:53 AM 75.0 °F - 71.1 °F 87% 29.94 in 10.0 mi West 3.5 mph - 0.02 in Rain Light Rain
3:10 AM 75.2 °F - 71.6 °F 89% 29.96 in 10.0 mi Calm Calm - 0.00 in Rain Light Rain
3:53 AM 73.9 °F - 72.0 °F 93% 29.93 in 8.0 mi Calm Calm - 0.02 in Rain Light Rain
4:47 AM 73.4 °F - 71.6 °F 94% 29.95 in 1.8 mi West 4.6 mph - 0.08 in Rain Rain
4:48 AM 73.9 °F - 72.0 °F 93% 29.93 in 1.5 mi West 4.6 mph - 0.09 in Rain Heavy Rain
4:59 AM 73.4 °F - 71.6 °F 94% 29.94 in 1.0 mi Calm Calm - 0.02 in Rain Heavy Rain
5:28 AM 73.4 °F - 71.6 °F 94% 29.94 in 3.0 mi Calm Calm - 0.19 in Rain Rain
5:53 AM 73.0 °F - 72.0 °F 96% 29.91 in 2.5 mi Calm Calm - 0.31 in Rain Rain
6:06 AM 73.4 °F - 71.6 °F 94% 29.93 in 3.0 mi Calm Calm - 0.05 in Rain Heavy Rain
6:53 AM 73.0 °F - 72.0 °F 96% 29.91 in 3.0 mi Calm Calm - 0.22 in Rain Heavy Rain
7:31 AM 73.4 °F - 71.6 °F 94% 29.93 in 2.0 mi Calm Calm - 0.14 in Rain Rain
7:42 AM 73.4 °F - 71.6 °F 94% 29.93 in 4.0 mi Calm Calm - 0.18 in Rain Light Rain
7:53 AM 73.9 °F - 72.0 °F 93% 29.92 in 4.0 mi SE 3.5 mph - 0.22 in Rain Rain
8:04 AM 73.4 °F - 71.6 °F 94% 29.95 in 2.0 mi SSE 3.5 mph - 0.04 in Rain Heavy Rain
8:11 AM 73.4 °F - 71.6 °F 94% 29.95 in 1.2 mi Calm Calm - 0.06 in Rain Heavy Rain
8:23 AM 73.4 °F - 71.6 °F 94% 29.95 in 0.8 mi Calm Calm - 0.10 in Rain Heavy Rain
8:38 AM 73.4 °F - 71.6 °F 94% 29.94 in 1.5 mi NNE 3.5 mph - 0.16 in Rain Heavy Rain
8:53 AM 73.0 °F - 71.1 °F 93% 29.91 in 1.2 mi Calm Calm - 0.22 in Rain Heavy Rain
9:04 AM 71.6 °F - 69.8 °F 94% 29.93 in 3.0 mi Calm Calm - 0.05 in Rain Rain
9:19 AM 73.4 °F - 69.8 °F 88% 29.93 in 1.8 mi Calm Calm - 0.13 in Rain Rain
9:23 AM 73.4 °F - 69.8 °F 88% 29.93 in 3.0 mi Calm Calm - 0.15 in Rain Rain
9:53 AM 73.0 °F - 71.1 °F 93% 29.91 in 5.0 mi Calm Calm - 0.32 in Rain Light Rain
10:53 AM 73.9 °F - 71.1 °F 91% 29.91 in 9.0 mi ENE 4.6 mph - 0.10 in Rain Light Rain
11:53 AM 72.0 °F - 69.1 °F 91% 29.89 in 10.0 mi ENE 12.7 mph - 0.01 in Rain Light Rain
12:09 PM 71.6 °F - 68.0 °F 88% 29.91 in 10.0 mi NE 10.4 mph - 0.00 in Rain Light Rain
12:39 PM 71.6 °F - 69.8 °F 94% 29.91 in 5.0 mi ENE 8.1 mph - 0.02 in Rain Rain
12:53 PM 71.1 °F - 69.1 °F 93% 29.89 in 5.0 mi East 6.9 mph - 0.04 in Rain Rain
1:18 PM 71.6 °F - 68.0 °F 88% 29.90 in 6.0 mi NE 9.2 mph - 0.04 in Rain Rain
1:53 PM 71.1 °F - 68.0 °F 90% 29.87 in 9.0 mi ENE 9.2 mph - 0.10 in Rain Light Rain
2:53 PM 71.1 °F - 69.1 °F 93% 29.86 in 5.0 mi ENE 6.9 mph - 0.01 in Rain Light Rain
3:14 PM 71.6 °F - 69.8 °F 94% 29.87 in 5.0 mi NE 6.9 mph - 0.03 in Rain Rain
3:53 PM 70.0 °F - 68.0 °F 93% 29.85 in 6.0 mi NE 8.1 mph - 0.07 in Rain Rain
4:25 PM 69.8 °F - 68.0 °F 94% 29.86 in 5.0 mi NE 3.5 mph - 0.05 in Rain Rain
4:39 PM 69.8 °F - 68.0 °F 94% 29.86 in 6.0 mi NE 8.1 mph - 0.06 in Rain Light Rain
4:53 PM 70.0 °F - 68.0 °F 93% 29.84 in 9.0 mi ENE 10.4 mph - 0.07 in Rain Light Rain
5:27 PM 69.8 °F - 68.0 °F 94% 29.85 in 10.0 mi NE 8.1 mph - 0.02 in Rain Light Rain
5:34 PM 69.8 °F - 68.0 °F 94% 29.85 in 10.0 mi NE 6.9 mph - 0.02 in   Overcast
5:44 PM 69.8 °F - 66.2 °F 88% 29.85 in 10.0 mi NE 10.4 mph - 0.02 in   Overcast
5:53 PM 70.0 °F - 66.9 °F 90% 29.83 in 10.0 mi NE 8.1 mph - 0.02 in   Overcast
6:39 PM 69.8 °F - 68.0 °F 94% 29.87 in 10.0 mi NE 4.6 mph - 0.00 in Rain Light Rain
6:53 PM 70.0 °F - 66.9 °F 90% 29.86 in 10.0 mi ENE 4.6 mph - 0.00 in   Overcast
7:12 PM 69.8 °F - 66.2 °F 88% 29.88 in 10.0 mi Variable 3.5 mph - N/A   Overcast
7:38 PM 69.8 °F - 66.2 °F 88% 29.89 in 10.0 mi NNW 3.5 mph - N/A   Overcast
7:53 PM 69.1 °F - 66.9 °F 93% 29.87 in 10.0 mi North 4.6 mph - N/A   Overcast
8:08 PM 69.8 °F - 66.2 °F 88% 29.87 in 10.0 mi ENE 8.1 mph - N/A   Overcast
8:53 PM 70.0 °F - 66.0 °F 87% 29.86 in 10.0 mi NE 4.6 mph - N/A   Overcast
9:53 PM 70.0 °F - 66.0 °F 87% 29.88 in 10.0 mi Calm Calm - N/A   Overcast
10:53 PM 69.1 °F - 66.0 °F 90% 29.87 in 10.0 mi Variable 3.5 mph - N/A   Scattered Clouds
11:39 PM 69.8 °F - 66.2 °F 88% 29.88 in 10.0 mi Variable 5.8 mph - N/A   Mostly Cloudy
11:48 PM 69.8 °F - 64.4 °F 83% 29.88 in 10.0 mi NNE 6.9 mph - N/A   Scattered Clouds
11:53 PM 69.1 °F - 66.0 °F 90% 29.87 in 10.0 mi Calm Calm - N/A   Mostly Cloudy